EW0923 Weather Reports


Display with metric or nautical units.
time (UTC)temp
F
wind
direction
speed
MPH
gust
MPH
rain 1hr
in
rain 24hr
in
rain mn
in
humidity
%
barometer
mb
20260905024026 76 0 0.0 0.0 0.00 0.10 0.10 85 1010.2
20260905023532 76 0 0.0 0.0 0.00 0.10 0.10 85 1010.2
20260905023059 76 0 0.0 0.0 0.00 0.10 0.10 85 1010.3
20260905022529 76 0 0.0 0.0 0.00 0.10 0.10 85 1010.4
20260905022026 76 0 0.0 1.0 0.00 0.10 0.10 85 1010.3
20260905021551 76 0 0.0 1.0 0.00 0.10 0.10 84 1010.3
20260905021027 76 273 0.0 1.0 0.00 0.10 0.10 85 1010.3
20260905020527 76 0 0.0 0.0 0.00 0.10 0.10 85 1010.2
20260905020056 76 0 0.0 0.0 0.00 0.10 0.10 85 1010.3
20260905015524 76 0 0.0 0.0 0.00 0.10 0.10 85 1010.2
20260905015029 76 0 0.0 0.0 0.00 0.10 0.10 85 1010.1
20260905014553 76 0 0.0 0.0 0.00 0.10 0.10 84 1010.1
20260905014029 76 0 0.0 0.0 0.00 0.10 0.10 84 1010.2
20260905013526 76 0 0.0 0.0 0.00 0.10 0.10 84 1010.3
20260905013048 76 0 0.0 0.0 0.00 0.10 0.10 84 1010.2
20260905012527 76 0 0.0 0.0 0.00 0.10 0.10 83 1010.2
20260905012025 76 0 0.0 0.0 0.00 0.10 0.10 83 1010.2
20260905011609 76 0 0.0 0.0 0.00 0.10 0.10 83 1010.2
20260905011025 76 0 0.0 0.0 0.00 0.10 0.10 83 1010.2
20260905010526 76 0 0.0 0.0 0.00 0.10 0.10 83 1010.3
20260905010046 77 0 0.0 1.0 0.00 0.10 0.10 83 1010.5
20260905005525 77 0 0.0 1.0 0.00 0.10 0.10 83 1010.4
20260905005025 76 0 0.0 0.0 0.00 0.10 0.10 83 1010.3
20260905004551 76 0 0.0 0.0 0.00 0.10 0.10 83 1010.4
20260905004028 77 0 0.0 0.0 0.00 0.10 0.10 83 1010.3
20260905003527 77 0 0.0 0.0 0.00 0.10 0.10 82 1010.3
20260905003054 77 0 0.0 0.0 0.00 0.10 0.10 82 1010.1
20260905002526 77 0 0.0 0.0 0.00 0.10 0.10 81 1010.0
20260905002028 77 0 0.0 0.0 0.00 0.10 0.10 81 1010.1
20260905001557 77 0 0.0 0.0 0.00 0.10 0.10 81 1009.9
20260905001026 77 0 0.0 0.0 0.00 0.10 0.10 80 1010.0
20260905000525 77 0 0.0 0.0 0.00 0.10 0.10 79 1009.9
20260905000048 78 0 0.0 0.0 0.00 0.10 0.10 79 1009.8
20260904235527 78 0 0.0 0.0 0.00 0.10 0.10 77 1009.8
20260904235026 78 0 0.0 0.0 0.00 0.10 0.10 77 1009.9
20260904234554 79 0 0.0 0.0 0.00 0.10 0.10 76 1009.9
20260904234026 79 0 0.0 0.0 0.00 0.10 0.10 76 1010.0
20260904233530 79 0 0.0 1.0 0.00 0.10 0.10 75 1010.0
20260904233058 80 0 0.0 1.0 0.00 0.10 0.10 74 1009.9
20260904232530 80 0 0.0 1.0 0.00 0.10 0.10 73 1010.0
20260904232024 80 0 0.0 1.0 0.00 0.10 0.10 72 1009.9
20260904231546 80 0 0.0 1.0 0.00 0.10 0.10 71 1010.1
20260904231025 81 0 0.0 1.0 0.00 0.10 0.10 72 1010.2
20260904230528 81 0 0.0 1.0 0.00 0.10 0.10 71 1010.1
20260904230048 81 0 0.0 1.0 0.00 0.10 0.10 70 1010.1
20260904225525 81 0 0.0 1.0 0.00 0.10 0.10 70 1010.1
20260904225028 81 0 0.0 1.0 0.00 0.10 0.10 69 1010.3
20260904224550 82 0 0.0 1.0 0.00 0.10 0.10 69 1010.3
20260904224026 82 0 0.0 1.0 0.00 0.10 0.10 68 1010.1
20260904223527 82 0 0.0 3.0 0.00 0.10 0.10 67 1010.1
20260904223047 82 0 0.0 4.0 0.00 0.10 0.10 68 1010.0
20260904222524 82 0 0.0 4.0 0.00 0.10 0.10 67 1010.0
20260904222026 82 290 0.0 5.0 0.00 0.10 0.10 66 1010.1
20260904221547 83 284 0.0 7.0 0.00 0.10 0.10 66 1010.2
20260904221026 83 0 1.0 7.0 0.00 0.10 0.10 66 1010.1
20260904220525 83 269 1.0 6.0 0.00 0.10 0.10 65 1010.1
20260904220100 83 296 0.0 3.0 0.00 0.10 0.10 64 1010.2
20260904215528 83 292 1.0 3.0 0.00 0.10 0.10 65 1010.3
20260904215025 83 290 1.0 3.0 0.00 0.10 0.10 64 1010.3
20260904214541 83 291 1.0 3.0 0.00 0.10 0.10 64 1010.3
20260904214027 83 271 1.0 4.0 0.00 0.10 0.10 63 1010.3
20260904213529 84 306 1.0 4.0 0.00 0.10 0.10 63 1010.5
20260904213051 84 273 1.0 4.0 0.00 0.10 0.10 62 1010.6
20260904212529 84 286 1.0 3.0 0.00 0.10 0.10 61 1010.5
20260904212027 85 288 1.0 4.0 0.00 0.10 0.10 61 1010.3
20260904211547 85 292 1.0 4.0 0.00 0.10 0.10 60 1010.1
20260904211024 85 289 1.0 4.0 0.00 0.10 0.10 61 1010.0
20260904210525 85 98 1.0 5.0 0.00 0.10 0.10 61 1010.0
20260904210056 85 281 2.0 5.0 0.00 0.10 0.10 60 1009.9
20260904205529 85 239 1.0 4.0 0.00 0.10 0.10 60 1009.9
20260904205028 85 273 1.0 4.0 0.00 0.10 0.10 59 1009.9
20260904204547 85 277 1.0 4.0 0.00 0.10 0.10 61 1010.1
20260904204027 85 335 1.0 4.0 0.00 0.10 0.10 61 1010.1
20260904203526 85 292 1.0 4.0 0.00 0.10 0.10 62 1010.3
20260904203058 85 271 0.0 4.0 0.00 0.10 0.10 62 1010.2
20260904202524 85 273 1.0 6.0 0.00 0.10 0.10 61 1010.3
20260904202026 86 293 1.0 6.0 0.00 0.10 0.10 61 1010.3
20260904201557 86 294 1.0 3.0 0.00 0.10 0.10 62 1010.3
20260904201031 85 282 1.0 7.0 0.00 0.10 0.10 62 1010.3
20260904200528 85 300 0.0 7.0 0.00 0.10 0.10 61 1010.3
20260904200053 85 280 2.0 7.0 0.00 0.10 0.10 60 1010.3
20260904195527 86 313 2.0 4.0 0.00 0.10 0.10 59 1010.4
20260904195026 87 296 0.0 4.0 0.00 0.10 0.10 60 1010.6
20260904194551 86 298 1.0 4.0 0.00 0.10 0.10 60 1010.6
20260904194031 86 263 0.0 2.0 0.00 0.10 0.10 60 1010.6
20260904193525 86 13 0.0 3.0 0.00 0.10 0.10 59 1010.8
20260904193047 85 284 0.0 3.0 0.00 0.10 0.10 61 1010.8
20260904192532 85 275 1.0 4.0 0.00 0.10 0.10 60 1010.8
20260904192025 85 273 1.0 4.0 0.00 0.10 0.10 60 1010.9
20260904191543 85 274 1.0 4.0 0.00 0.10 0.10 61 1011.0
20260904191028 85 295 1.0 4.0 0.00 0.10 0.10 61 1011.1
20260904190528 85 289 1.0 4.0 0.00 0.10 0.10 61 1011.2
20260904190047 85 335 0.0 8.0 0.00 0.10 0.10 60 1011.3
20260904185529 85 300 1.0 8.0 0.00 0.10 0.10 60 1011.3
20260904185029 85 30 3.0 8.0 0.00 0.10 0.10 59 1011.4
20260904184547 86 298 1.0 12.0 0.00 0.10 0.10 59 1011.5
20260904184031 86 284 1.0 12.0 0.00 0.10 0.10 58 1011.4
20260904183532 87 304 3.0 11.0 0.00 0.10 0.10 58 1011.5
20260904183100 87 298 1.0 7.0 0.00 0.10 0.10 58 1011.5
20260904182529 87 274 2.0 7.0 0.00 0.10 0.10 58 1011.5
20260904182033 86 282 2.0 4.0 0.00 0.10 0.10 59 1011.6
20260904181551 86 327 1.0 4.0 0.00 0.10 0.10 60 1011.5
20260904181028 86 300 1.0 5.0 0.00 0.10 0.10 59 1011.5
20260904180530 86 293 2.0 8.0 0.00 0.10 0.10 59 1011.3
20260904180058 85 259 1.0 9.0 0.00 0.10 0.10 58 1011.4
20260904175530 86 309 3.0 9.0 0.00 0.10 0.10 59 1011.3
20260904175028 86 329 1.0 8.0 0.00 0.10 0.10 59 1011.5
20260904174552 87 327 2.0 6.0 0.00 0.10 0.10 58 1011.4
20260904174030 86 321 1.0 8.0 0.00 0.10 0.10 58 1011.4
20260904173528 86 292 3.0 8.0 0.00 0.10 0.10 59 1011.4
20260904173112 86 346 2.0 7.0 0.00 0.10 0.10 58 1011.5
20260904172529 86 301 1.0 8.0 0.00 0.10 0.10 60 1011.4
20260904172029 86 303 2.0 8.0 0.00 0.10 0.10 60 1011.6
20260904171553 86 330 2.0 8.0 0.00 0.10 0.10 60 1011.6
20260904171028 87 314 1.0 9.0 0.00 0.10 0.10 60 1011.6
20260904170529 86 289 2.0 9.0 0.00 0.10 0.10 62 1011.5
20260904170105 86 265 1.0 9.0 0.00 0.10 0.10 61 1011.5
20260904165529 85 312 4.0 9.0 0.00 0.10 0.10 61 1011.6
20260904165029 85 324 2.0 7.0 0.00 0.10 0.10 61 1011.6
20260904164556 85 318 3.0 7.0 0.00 0.10 0.10 60 1011.5
20260904164028 85 300 3.0 7.0 0.00 0.10 0.10 63 1011.5
20260904163534 85 296 1.0 6.0 0.00 0.10 0.10 63 1011.5
20260904163051 86 273 1.0 5.0 0.00 0.10 0.10 62 1011.5
20260904162526 86 327 2.0 9.0 0.00 0.10 0.10 61 1011.6
20260904162028 86 346 3.0 9.0 0.00 0.10 0.10 60 1011.6
20260904161548 86 71 1.0 9.0 0.00 0.10 0.10 62 1011.6
20260904161029 85 336 3.0 10.0 0.00 0.10 0.10 61 1011.6
20260904160533 85 43 2.0 10.0 0.00 0.10 0.10 63 1011.6
20260904160048 84 350 4.0 10.0 0.00 0.10 0.10 63 1011.9
20260904155930 85 57 2.0 10.0 0.00 0.10 0.10 62 1011.9
20260904155025 84 27 4.0 11.0 0.00 0.10 0.10 63 1011.9
20260904154543 85 341 4.0 11.0 0.00 0.10 0.10 63 1012.1
20260904154023 85 24 2.0 8.0 0.00 0.10 0.10 67 1012.1
20260904153527 84 329 1.0 8.0 0.00 0.10 0.10 66 1012.0
20260904153058 84 306 3.0 8.0 0.00 0.10 0.10 65 1012.1
20260904152526 83 313 2.0 9.0 0.00 0.10 0.10 67 1012.0
20260904152024 83 313 2.0 9.0 0.00 0.10 0.10 67 1012.0
20260904151549 83 319 3.0 8.0 0.00 0.10 0.10 67 1012.0
20260904151028 83 295 1.0 5.0 0.00 0.10 0.10 68 1011.9
20260904150529 83 281 1.0 5.0 0.00 0.10 0.10 69 1012.0
20260904150052 83 285 2.0 8.0 0.00 0.10 0.10 69 1012.0
20260904145526 82 301 3.0 10.0 0.00 0.10 0.10 68 1011.8
20260904145025 82 324 2.0 10.0 0.00 0.10 0.10 69 1012.0
20260904144554 82 311 3.0 10.0 0.00 0.10 0.10 69 1012.0
20260904144028 82 346 4.0 11.0 0.00 0.10 0.10 69 1011.9
20260904143527 82 290 3.0 11.0 0.00 0.10 0.10 70 1011.9
20260904143049 82 320 3.0 12.0 0.00 0.10 0.10 70 1011.8
20260904142526 81 315 3.0 12.0 0.00 0.10 0.10 71 1011.8
20260904142025 81 324 3.0 11.0 0.00 0.10 0.10 72 1011.8
20260904141548 81 350 3.0 11.0 0.00 0.10 0.10 71 1011.9
20260904141026 81 302 2.0 8.0 0.00 0.10 0.10 72 1011.8
20260904140524 81 333 1.0 9.0 0.00 0.10 0.10 73 1011.7
20260904140046 81 347 2.0 9.0 0.00 0.10 0.10 74 1011.7
20260904135524 80 311 4.0 9.0 0.00 0.10 0.10 74 1011.7
20260904135024 80 54 2.0 6.0 0.00 0.10 0.10 76 1011.7
20260904134545 80 344 1.0 9.0 0.00 0.10 0.10 76 1011.7
20260904134024 79 304 3.0 9.0 0.00 0.10 0.10 77 1011.7
20260904133527 79 13 3.0 9.0 0.00 0.10 0.10 77 1011.7
20260904133047 79 322 2.0 8.0 0.00 0.10 0.10 78 1011.7
20260904132524 78 300 2.0 8.0 0.00 0.10 0.10 78 1011.8
20260904132025 78 289 2.0 8.0 0.00 0.10 0.10 79 1011.8
20260904131545 78 336 4.0 8.0 0.00 0.10 0.10 79 1011.8
20260904131028 78 304 1.0 4.0 0.00 0.10 0.10 80 1011.8
20260904130526 78 288 1.0 4.0 0.00 0.10 0.10 81 1011.8
20260904130046 77 306 1.0 5.0 0.00 0.10 0.10 81 1012.0
20260904125529 77 308 1.0 5.0 0.00 0.11 0.10 82 1011.9
20260904125027 76 321 0.0 4.0 0.00 0.11 0.10 84 1011.9
20260904124558 76 290 1.0 4.0 0.00 0.11 0.10 84 1011.9
20260904124028 76 335 1.0 2.0 0.00 0.11 0.10 84 1011.9
20260904123524 76 288 1.0 3.0 0.00 0.11 0.10 84 1012.0
20260904123049 76 298 1.0 3.0 0.00 0.11 0.10 84 1011.9
20260904122524 75 285 1.0 4.0 0.00 0.11 0.10 84 1011.9
20260904122024 75 291 1.0 4.0 0.00 0.11 0.10 85 1012.0
20260904121544 75 286 0.0 3.0 0.00 0.11 0.10 85 1011.9
20260904121024 75 25 0.0 4.0 0.00 0.11 0.10 86 1011.9
20260904120528 75 297 0.0 4.0 0.00 0.11 0.10 86 1012.0
20260904120057 74 279 1.0 4.0 0.00 0.11 0.10 86 1012.0
20260904115528 74 244 0.0 4.0 0.00 0.11 0.10 88 1011.9
20260904115028 74 242 1.0 4.0 0.00 0.11 0.10 88 1011.8
20260904114548 74 254 1.0 2.0 0.00 0.11 0.10 89 1011.8
20260904114028 73 0 0.0 2.0 0.00 0.11 0.10 90 1011.8
20260904113526 73 263 0.0 2.0 0.00 0.11 0.10 90 1011.6
20260904113051 73 276 1.0 2.0 0.00 0.11 0.10 91 1011.5
20260904112530 73 280 0.0 2.0 0.00 0.11 0.10 91 1011.5
20260904112030 72 276 0.0 2.0 0.00 0.11 0.10 92 1011.5
20260904111609 72 0 0.0 1.0 0.00 0.11 0.10 92 1011.5
20260904111028 72 298 0.0 1.0 0.00 0.11 0.10 93 1011.5
20260904110531 72 0 0.0 2.0 0.00 0.11 0.10 93 1011.4
20260904110055 72 274 0.0 2.0 0.00 0.11 0.10 93 1011.3
20260904105528 72 258 0.0 1.0 0.00 0.11 0.10 93 1011.3
20260904105028 72 269 0.0 1.0 0.00 0.11 0.10 93 1011.2
20260904104550 72 0 0.0 3.0 0.00 0.11 0.10 93 1011.1
20260904104028 72 0 0.0 3.0 0.00 0.11 0.10 93 1011.0
20260904103531 73 267 0.0 1.0 0.00 0.11 0.10 93 1011.0
20260904103046 73 279 0.0 3.0 0.00 0.11 0.10 92 1010.9
20260904102529 73 0 0.0 4.0 0.00 0.11 0.10 92 1011.0
20260904102029 73 273 0.0 5.0 0.00 0.11 0.10 92 1010.9
20260904101548 73 0 0.0 5.0 0.00 0.11 0.10 93 1010.9
20260904101028 73 261 0.0 2.0 0.00 0.11 0.10 93 1011.0
20260904100533 73 267 0.0 3.0 0.00 0.11 0.10 93 1010.9
20260904100053 73 279 1.0 3.0 0.00 0.11 0.10 93 1010.9
20260904095528 73 273 1.0 3.0 0.00 0.37 0.10 93 1010.7
20260904095027 73 265 0.0 2.0 0.00 0.37 0.10 93 1010.8
20260904094559 73 269 1.0 2.0 0.00 0.37 0.10 93 1010.7
20260904094029 73 0 0.0 3.0 0.00 0.37 0.10 93 1010.7
20260904093527 74 296 0.0 3.0 0.00 0.37 0.10 93 1010.7
20260904093100 74 288 1.0 8.0 0.00 0.37 0.10 93 1010.8
20260904092530 74 290 1.0 8.0 0.00 0.37 0.10 93 1010.8
20260904092028 74 262 2.0 8.0 0.00 0.37 0.10 93 1011.0
20260904091551 74 288 1.0 5.0 0.00 0.37 0.10 93 1010.9
20260904091029 74 266 1.0 5.0 0.00 0.37 0.10 93 1011.1
20260904090529 74 227 1.0 9.0 0.00 0.37 0.10 93 1011.0
20260904090047 74 294 2.0 9.0 0.00 0.37 0.10 93 1011.2
20260904085528 74 275 1.0 9.0 0.00 0.54 0.10 93 1011.2
20260904085031 74 281 2.0 6.0 0.00 0.54 0.10 94 1011.2
20260904084555 74 221 1.0 6.0 0.00 0.54 0.10 94 1011.3
20260904084032 74 0 0.0 3.0 0.00 0.54 0.10 94 1011.2
20260904083528 74 268 1.0 4.0 0.00 0.54 0.10 94 1011.1
20260904083052 74 330 1.0 8.0 0.00 0.54 0.10 94 1011.1
20260904082528 74 284 2.0 8.0 0.00 0.54 0.10 95 1011.2
20260904082028 74 295 0.0 6.0 0.00 0.54 0.10 95 1011.3
20260904081607 74 286 1.0 7.0 0.00 0.54 0.10 95 1011.4
20260904081028 74 0 1.0 7.0 0.00 0.54 0.10 95 1011.5
20260904080526 74 288 1.0 4.0 0.00 0.54 0.10 95 1011.4
20260904080050 74 292 1.0 4.0 0.00 0.54 0.10 95 1011.4
20260904075528 74 267 0.0 4.0 0.00 0.55 0.10 95 1011.3
20260904075026 74 268 1.0 4.0 0.00 0.55 0.10 95 1011.2
20260904074607 74 263 1.0 4.0 0.00 0.55 0.10 95 1011.2
20260904074028 73 277 0.0 3.0 0.00 0.55 0.10 95 1011.2
20260904073528 73 263 0.0 2.0 0.00 0.55 0.10 95 1011.1
20260904073104 73 0 0.0 2.0 0.00 0.55 0.10 95 1011.0
20260904072528 73 0 0.0 1.0 0.00 0.55 0.10 95 1011.0
20260904072028 73 246 0.0 1.0 0.00 0.55 0.10 95 1010.9
20260904071551 73 0 0.0 0.0 0.00 0.55 0.10 95 1010.9
20260904071028 73 0 0.0 1.0 0.00 0.55 0.10 95 1010.9
20260904070531 73 0 0.0 1.0 0.00 0.55 0.10 95 1010.7
20260904070103 73 0 0.0 1.0 0.00 0.55 0.10 95 1010.4
20260904065526 73 0 0.0 1.0 0.00 0.96 0.10 95 1010.6
20260904065026 73 0 0.0 1.0 0.00 0.96 0.10 95 1010.5
20260904064547 73 0 0.0 1.0 0.00 0.96 0.10 95 1010.7
20260904064028 73 0 0.0 1.0 0.00 0.96 0.10 95 1010.6
20260904063527 73 240 0.0 1.0 0.00 0.96 0.10 95 1010.6
20260904063057 73 204 0.0 1.0 0.00 0.96 0.10 95 1010.6
20260904062532 73 0 0.0 2.0 0.00 0.96 0.10 95 1010.7
20260904062027 73 0 0.0 2.0 0.00 0.96 0.10 95 1010.8
20260904061551 73 0 0.0 2.0 0.00 0.96 0.10 95 1010.7
20260904061028 73 0 0.0 2.0 0.00 0.96 0.10 95 1010.6
20260904060526 73 0 0.0 2.0 0.00 0.96 0.10 95 1010.7
20260904060111 73 0 0.0 2.0 0.00 0.96 0.10 95 1010.9
20260904055528 73 0 0.0 1.0 0.00 0.96 0.10 95 1010.8
20260904055029 73 0 0.0 1.0 0.00 0.96 0.10 95 1010.9
20260904054549 73 0 0.0 0.0 0.00 0.96 0.10 94 1011.0
20260904054029 73 0 0.0 1.0 0.02 0.96 0.10 94 1011.2
20260904053529 73 0 0.0 1.0 0.03 0.96 0.10 94 1011.1
20260904053056 73 0 0.0 1.0 0.08 0.96 0.10 94 1011.1
20260904052525 73 0 0.0 1.0 0.10 0.96 0.10 94 1011.1
20260904052028 73 0 0.0 1.0 0.10 0.96 0.10 94 1011.2
20260904051551 73 0 0.0 1.0 0.10 0.96 0.10 94 1011.6
20260904051027 73 0 0.0 2.0 0.10 0.96 0.10 93 1011.6
20260904050526 73 0 0.0 2.0 0.10 0.96 0.10 93 1011.6
20260904050048 74 0 0.0 2.0 0.10 0.96 0.10 93 1011.5
20260904045528 74 0 0.0 2.0 0.10 0.96 0.10 93 1011.4
20260904045032 74 211 1.0 3.0 0.10 0.96 0.10 92 1011.3
20260904044547 74 95 0.0 7.0 0.10 0.96 0.10 92 1011.3
20260904044029 74 255 1.0 14.0 0.08 0.94 0.08 91 1012.2
20260904043528 75 294 3.0 14.0 0.07 0.93 0.07 90 1012.4
20260904043057 76 307 3.0 13.0 0.02 0.88 0.02 87 1012.7
20260904042530 76 297 0.0 2.0 0.00 0.86 0.00 86 1012.6
20260904042029 76 161 0.0 0.0 0.00 0.86 0.00 86 1012.3
20260904041552 76 157 0.0 0.0 0.00 0.86 0.00 86 1012.3
20260904041026 76 0 0.0 0.0 0.00 0.86 0.00 86 1011.8
20260904040529 75 0 0.0 0.0 0.00 0.86 0.00 87 1011.7
20260904040049 75 0 0.0 0.0 0.00 0.86 0.00 88 1011.9
20260904035527 75 156 0.0 0.0 0.00 0.86 0.86 88 1011.9
20260904035027 75 0 0.0 0.0 0.00 0.86 0.86 89 1011.9
20260904034551 75 0 0.0 0.0 0.00 0.86 0.86 89 1011.9
20260904034025 75 0 0.0 0.0 0.00 0.86 0.86 89 1012.1
20260904033529 75 0 0.0 0.0 0.00 0.86 0.86 89 1012.1
20260904033052 75 0 0.0 0.0 0.00 0.86 0.86 89 1012.3
20260904032530 75 0 0.0 0.0 0.00 0.86 0.86 89 1012.3
20260904032028 75 0 0.0 0.0 0.00 0.86 0.86 89 1012.4
20260904031551 75 0 0.0 0.0 0.00 0.86 0.86 88 1012.4
20260904031027 75 0 0.0 0.0 0.00 0.86 0.86 88 1012.5
20260904030526 75 0 0.0 0.0 0.00 0.86 0.86 88 1012.4
20260904030048 76 0 0.0 0.0 0.00 0.86 0.86 88 1012.5
20260904025551 76 0 0.0 0.0 0.00 0.86 0.86 88 1012.5
20260904025025 76 0 0.0 0.0 0.00 0.86 0.86 87 1012.6
20260904024550 76 0 0.0 0.0 0.00 0.86 0.86 86 1012.4